Regional Weather Roundup
Issued by NWS

Home | Current Version | Previous Version | Graphics & Text | Print | Product List | Glossary On
Versions: 1 2 3 4 5 6 7 8 9 10 11 12 13 14 15 16 17 18 19 20 21 22 23 24 25 26 27 28 29 30 31 32 33 34 35 36 37 38 39 40 41 42 43 44 45 46 47 48 49 50
987
ASUS43 KLMK 281302
RWRKY
KENTUCKY REGIONAL WEATHER ROUNDUP
NATIONAL WEATHER SERVICE LOUISVILLE KY
900 AM EDT WED SEP 28 2016

NOTE "FAIR" INDICATES FEW OR NO CLOUDS BELOW 12,000 FEET
WITH NO SIGNIFICANT WEATHER AND/OR OBSTRUCTIONS TO VISIBILITY.

KYZ001>023-026-027-061>063-070>075-281400-
WESTERN AND SOUTH CENTRAL KENTUCKY

CITY           SKY/WX    TMP DP  RH WIND       PRES   REMARKS
PADUCAH        MOSUNNY   61  50  67 SW8       29.84R
HENDERSON      PTSUNNY   61  48  63 SW8       29.80F
OWENSBORO      PTSUNNY  N/A N/A N/A SW7       29.82F
HOPKINSVILLE   SUNNY     60  50  69 SW10      29.88S
BOWLING GREEN  MOSUNNY   61  50  67 S7        29.89S
GLASGOW        PTSUNNY   57  48  72 S3        29.90S
$$

KYZ024-025-028>034-038-045-046-053-281400-
NORTH CENTRAL KENTUCKY

CITY           SKY/WX    TMP DP  RH WIND       PRES   REMARKS
LOUISVILLE/SDF PTSUNNY   65  47  52 S8        29.81F
LOUISVILLE/LOU MOSUNNY   62  48  60 S7        29.82F
FORT KNOX      MOSUNNY   59  48  66 S10       29.82F
$$

KYZ035>037-039>044-047>052-055>060-089>105-281400-
NORTHEAST KENTUCKY

CITY           SKY/WX    TMP DP  RH WIND       PRES   REMARKS
LEXINGTON      MOSUNNY   62  46  55 S12       29.87F
COVINGTON      PTSUNNY   60  48  64 S9        29.81R
FRANKFORT      PTSUNNY   61  46  57 S9        29.84F
$$

KYZ054-064>069-076>088-106>120-281400-
SOUTHEAST KENTUCKY

CITY           SKY/WX    TMP DP  RH WIND       PRES   REMARKS
JACKSON        SUNNY     56  46  69 CALM      29.94S
LONDON         SUNNY     51  46  83 CALM      29.95S
SOMERSET       SUNNY     54  50  87 S5        29.95S
MIDDLESBORO    CLOUDY    47  47 100 CALM      29.99S
MONTICELLO     SUNNY     58  50  75 NW8       29.95S
$$





USA.gov is the U.S. government's official web portal to all federal, state and local government web resources and services.